Temp
55 56 56 56 56 56 56 56 56 56 56 56 56 57 57 57 56 55 54 54 53 52 56 58 61 61 63 63 62 65 66 66 68 66 65 65 65 67 65 66 65 66 63 62 59 57 57 71 70 66 70 72 74 74
55 55 55 55 56 55 55 55 55 56 56 56 56 56 57 57 56 54 50 55 55 49 55 57 63 66 67 68 65 64 62 62 67 65 63 64 63 63 63 62 65 62 68 66 64 65 67 70 70 72 75 73 74 75
55 55 55 55 55 55 55 55 55 55 55 56 56 56 56 56 55 54 52 53 51 48 54 54 60 65 65 67 74 61 66 65 65 65 66 64 61 66 62 63 64 65 65 66 62 66 67 69 71 73 75 75 74 75
55 55 55 55 55 55 55 55 55 55 55 55 55 55 55 55 55 54 52 52 50 51 49 61 67 65 69 68 66 69 68 67 67 67 66 65 63 64 65 65 66 69 66 64 62 65 68 70 72 74 75 76 75 74
54 54 54 54 54 54 55 55 55 54 54 55 55 55 55 55 54 54 53 54 55 52 52 57 63 66 67 67 65 66 67 65 66 66 65 65 65 63 64 65 67 69 66 65 67 70 71 71 74 75 74 74 75 73
54 54 54 54 54 54 55 55 54 54 54 54 54 54 54 54 53 50 52 52 55 54 48 48 63 61 66 66 64 63 64 64 66 65 67 67 64 65 63 62 70 72 70 75 72 74 73 75 75 75 74 74 73 73
54 54 54 54 54 54 54 54 54 54 54 54 54 54 53 53 52 53 55 54 53 55 52 52 56 66 65 66 64 63 65 65 66 66 63 68 68 66 64 61 71 71 72 70 70 71 69 72 72 74 75 74 70 72
54 54 54 54 54 54 54 54 54 54 54 54 53 53 53 52 52 54 58 53 54 55 55 50 55 61 66 65 63 65 63 64 63 68 64 65 63 64 60 65 72 71 69 68 69 74 77 75 73 73 73 72 71 70
54 54 54 54 54 54 54 54 54 54 53 53 53 53 53 52 55 55 56 55 56 55 52 52 48 56 66 64 64 63 65 62 64 64 65 65 63 59 65 67 69 68 69 69 70 70 73 72 73 72 72 70 69 68
54 54 54 54 54 54 54 54 54 53 53 53 54 54 54 55 56 57 52 50 49 54 53 51 57 56 61 63 63 63 62 62 59 64 64 61 63 70 74 72 68 69 71 71 67 65 66 67 69 70 70 72 70 69
54 54 54 54 54 54 54 54 53 52 54 54 49 49 52 55 56 54 51 50 52 49 54 56 56 57 63 59 61 61 60 60 56 59 60 60 60 66 65 66 67 69 70 72 70 73 73 71 70 69 68 69 68 67
53 53 53 53 53 53 53 53 52 52 51 51 49 51 50 52 52 50 49 51 49 51 55 52 56 57 60 61 60 60 57 59 54 61 57 57 64 62 63 63 64 66 69 70 70 68 68 67 68 67 68 68 67 65
53 53 53 53 53 53 53 53 53 53 53 52 47 46 48 51 41 45 45 49 49 56 56 55 57 58 59 60 59 57 54 56 61 56 57 60 58 59 61 63 63 65 67 67 67 68 68 68 66 66 66 67 66 65
52 52 52 52 53 53 53 53 53 54 50 47 47 38 45 44 48 51 53 54 56 55 57 54 54 56 57 57 56 54 58 55 53 51 54 59 56 58 61 62 63 63 64 65 65 65 64 65 65 65 66 66 65 64
52 52 52 52 53 53 52 53 53 53 51 47 47 40 46 54 53 57 59 57 57 57 54 54 55 55 54 52 56 56 52 50 54 54 58 56 57 59 60 61 61 63 63 64 64 63 62 62 62 62 63 64 63 62
52 52 52 53 53 52 52 52 52 51 49 47 47 45 52 50 53 53 55 53 58 55 54 56 53 51 51 52 51 51 50 50 55 56 56 58 59 60 61 62 62 62 62 62 62 61 60 60 59 60 61 62 62 61
52 51 53 52 52 52 53 50 49 48 48 47 47 51 50 50 50 53 54 54 57 53 52 53 48 49 54 50 50 56 53 55 56 56 59 59 59 57 59 60 61 61 60 59 59 59 58 58 59 59 58 59 61 61
49 54 53 52 52 52 52 52 48 47 44 49 46 51 51 53 54 55 57 57 56 54 53 51 51 47 49 48 52 58 59 58 56 58 59 57 57 59 61 61 61 61 60 59 59 59 58 58 57 55 55 59 59 58
52 52 52 52 51 47 45 48 48 42 47 50 50 51 52 54 56 56 56 57 56 57 54 52 50 50 53 56 58 59 58 61 59 58 58 60 61 62 62 61 61 60 60 59 59 60 59 58 58 57 56 57 56 57
52 52 52 53 52 46 43 46 50 43 42 47 49 48 50 52 54 54 55 55 54 52 50 49 52 58 58 58 59 62 60 58 56 53 56 57 60 61 61 62 62 61 62 60 62 52 64 63 61 62 62 61 61 62
51 52 53 52 48 46 44 44 45 46 46 44 50 48 49 50 49 51 52 56 50 50 51 56 58 61 63 63 62 58 63 62 57 60 56 54 60 59 63 63 62 63 64 65 67 63 58 65 62 66 67 63 64 68
50 52 48 49 45 45 43 46 45 48 45 46 46 47 47 48 49 51 53 50 52 56 57 59 60 61 61 60 62 61 60 62 59 56 52 56 61 59 61 64 63 64 65 67 68 68 67 69 68 67 61 60 60 69
51 49 47 46 42 40 41 48 41 44 41 45 47 44 46 46 49 53 49 54 56 56 55 57 60 62 61 64 64 64 63 60 59 61 58 64 64 63 64 65 66 67 65 65 69 70 70 58 63 68 69 65 68 69
50 45 42 42 41 38 45 41 43 43 45 43 44 43 47 48 53 49 48 53 56 54 54 54 57 58 59 59 61 63 65 66 62 58 58 60 63 64 66 67 67 66 70 73 70 69 69 70 61 68 70 70 69 69
38 39 39 34 43 40 39 41 42 42 40 43 43 45 47 49 46 45 47 50 51 52 52 53 58 59 58 62 63 64 66 67 57 57 61 62 65 65 65 67 69 70 69 68 68 69 70 70 70 70 70 70 70 70
34 41 37 41 41 39 39 39 41 41 43 43 45 49 50 47 43 44 46 49 50 52 51 52 51 53 56 61 60 63 65 68 65 59 64 65 66 67 68 68 70 72 73 72 72 71 71 71 71 70 71 69 53 67
34 39 43 48 44 42 40 43 45 43 42 43 46 46 44 41 43 45 52 53 51 52 53 54 54 54 56 59 61 63 64 66 66 65 65 67 69 70 71 71 70 74 74 73 73 74 73 73 72 72 72 74 74 73
41 42 38 43 42 44 40 41 43 44 45 49 47 42 43 43 47 54 53 53 56 56 54 55 60 61 59 61 62 61 63 64 65 65 66 66 69 70 71 74 75 53 71 75 75 75 74 75 74 74 74 74 75 74
40 44 43 40 41 41 43 44 47 52 54 51 48 48 50 57 60 58 61 60 63 52 49 52 56 62 63 60 61 62 64 64 62 60 61 65 69 70 72 73 74 74 74 74 51 62 73 74 75 76 77 75 77 77
41 45 41 40 40 41 47 52 51 55 56 55 56 55 56 58 61 65 63 62 60 58 58 59 61 58 56 60 63 64 63 65 67 68 67 68 72 79 78 75 75 76 74 74 75 74 47 60 58 71 71 74 75 76
46 44 41 41 41 46 49 51 52 51 51 52 54 52 51 55 59 62 62 62 62 62 61 60 62 65 64 61 61 64 63 68 68 69 71 73 75 76 77 76 77 76 74 74 74 73 74 72 74 73 73 71 74 69
45 42 41 38 42 51 54 50 51 49 51 52 53 54 54 52 50 59 65 63 62 62 57 57 61 65 69 67 67 67 48 69 71 71 70 71 72 74 76 77 76 75 74 74 74 75 74 73 74 74 74 73 74 74
45 46 44 42 43 46 53 50 49 48 49 50 52 51 53 53 52 60 65 65 62 62 63 63 65 68 67 67 69 68 54 70 59 45 46 42 39 47 64 76 75 74 74 74 75 74 72 72 72 71 72 72 73 74
MSLP
1024.28 1023.87 1023.50 1023.12 1022.62 1022.21 1021.68 1021.29 1020.74 1020.32 1019.92 1019.54 1019.22 1018.83 1018.35 1017.95 1017.66 1017.49 1017.17 1017.29 1016.86 1015.58 1013.27 1012.16 1011.34 1010.55 1009.89 1009.41 1008.57 1008.20 1007.85 1007.16 1006.41 1005.89 1005.60 1005.30 1005.05 1005.08 1005.11 1005.06 1005.11 1005.08 1005.36 1005.40 1005.74 1005.31 1004.64 1004.79 1004.86 1004.61 1004.32 1004.50 1004.97 1005.58
1024.17 1023.69 1023.31 1022.81 1022.42 1022.01 1021.48 1020.98 1020.56 1020.08 1019.62 1019.20 1018.86 1018.53 1018.20 1017.87 1017.55 1017.44 1017.33 1017.25 1017.19 1016.46 1013.36 1012.24 1011.02 1010.34 1010.03 1009.48 1009.28 1008.94 1008.62 1007.98 1007.32 1006.86 1006.66 1006.11 1005.70 1005.80 1005.48 1005.04 1005.54 1005.60 1005.26 1005.25 1005.81 1005.36 1005.56 1005.53 1005.34 1004.98 1004.87 1004.97 1005.46 1005.79
1023.98 1023.58 1023.15 1022.69 1022.17 1021.65 1021.26 1020.73 1020.26 1019.81 1019.34 1018.89 1018.54 1018.17 1017.86 1017.61 1017.33 1017.26 1017.02 1017.09 1016.97 1015.74 1013.02 1011.57 1009.71 1009.15 1009.51 1009.39 1009.26 1009.36 1008.59 1008.44 1008.11 1008.18 1007.31 1006.87 1006.26 1005.98 1005.46 1005.32 1005.29 1005.61 1005.84 1005.63 1005.97 1005.73 1005.75 1005.68 1005.79 1005.67 1005.53 1005.52 1006.03 1006.42
1023.69 1023.27 1022.86 1022.34 1021.92 1021.39 1020.87 1020.40 1019.92 1019.48 1018.98 1018.51 1018.10 1017.75 1017.46 1017.21 1016.92 1016.80 1016.71 1016.85 1016.78 1015.59 1013.77 1009.99 1009.00 1008.73 1008.55 1008.66 1008.87 1008.92 1009.02 1008.96 1008.65 1008.39 1007.70 1007.18 1006.78 1006.64 1005.95 1005.70 1005.36 1005.37 1005.71 1005.56 1005.71 1005.95 1005.96 1005.87 1005.85 1005.90 1005.96 1006.05 1006.26 1006.79
1023.30 1022.96 1022.60 1022.10 1021.55 1021.06 1020.53 1019.99 1019.49 1019.01 1018.52 1017.98 1017.54 1017.17 1016.86 1016.62 1016.36 1016.16 1016.00 1015.94 1016.02 1015.79 1013.77 1010.52 1009.10 1008.37 1008.26 1008.33 1008.46 1008.78 1008.96 1009.14 1008.75 1008.24 1007.88 1007.20 1007.18 1007.09 1006.64 1006.20 1005.07 1004.98 1004.80 1004.80 1004.17 1004.37 1004.60 1004.89 1005.54 1005.94 1006.09 1006.31 1006.69 1007.08
1022.94 1022.63 1022.20 1021.74 1021.25 1020.69 1020.14 1019.67 1019.11 1018.47 1017.90 1017.37 1016.84 1016.42 1016.10 1015.91 1015.84 1015.93 1015.41 1015.45 1015.58 1015.70 1014.42 1011.84 1009.35 1008.52 1008.05 1008.10 1008.29 1008.56 1008.87 1009.18 1008.77 1008.28 1007.65 1007.37 1007.47 1007.29 1006.28 1005.38 1004.48 1004.45 1004.60 1004.40 1004.33 1004.41 1004.78 1004.86 1005.55 1005.93 1006.14 1006.55 1007.03 1007.38
1022.44 1022.18 1021.81 1021.33 1020.82 1020.35 1019.80 1019.29 1018.67 1017.95 1017.27 1016.65 1016.04 1015.48 1015.04 1014.85 1015.26 1015.12 1014.98 1014.82 1015.06 1015.42 1014.04 1011.78 1009.49 1008.16 1007.96 1007.86 1008.17 1008.44 1008.71 1008.41 1008.18 1007.80 1007.47 1006.96 1007.07 1007.11 1006.13 1004.87 1004.46 1004.40 1004.49 1004.65 1004.93 1004.98 1005.18 1005.27 1005.33 1005.84 1006.28 1006.70 1007.26 1007.63
1021.97 1021.64 1021.30 1020.89 1020.40 1019.95 1019.41 1018.83 1018.13 1017.37 1016.56 1015.86 1015.25 1014.79 1014.45 1014.30 1014.81 1014.53 1014.17 1014.77 1014.99 1014.46 1013.67 1012.05 1009.60 1008.28 1007.73 1007.33 1007.44 1007.86 1007.81 1007.93 1007.79 1007.06 1007.24 1006.66 1006.96 1006.69 1005.49 1004.72 1004.22 1004.45 1004.62 1004.78 1004.92 1004.77 1004.49 1004.98 1005.57 1005.94 1006.39 1006.86 1007.28 1007.75
1021.53 1021.14 1020.75 1020.36 1019.87 1019.46 1018.98 1018.32 1017.57 1016.68 1015.79 1015.06 1014.55 1014.44 1014.72 1014.62 1014.27 1014.44 1014.16 1014.42 1014.88 1014.70 1013.08 1012.03 1010.37 1008.30 1007.74 1007.52 1007.44 1007.52 1007.38 1007.17 1007.49 1006.73 1006.51 1006.47 1005.94 1005.33 1004.39 1004.19 1004.13 1004.23 1004.29 1004.22 1005.01 1005.04 1005.01 1005.24 1005.69 1006.19 1006.63 1007.09 1007.46 1007.94
1021.14 1020.68 1020.26 1019.93 1019.44 1018.99 1018.57 1017.94 1017.21 1016.27 1015.23 1014.44 1014.42 1014.51 1014.09 1014.28 1014.31 1014.28 1014.50 1014.50 1014.51 1013.58 1013.10 1011.52 1010.48 1008.97 1008.47 1007.51 1007.25 1007.32 1007.17 1006.87 1006.65 1006.31 1006.53 1005.97 1004.78 1004.21 1003.94 1004.04 1004.26 1004.14 1004.36 1004.61 1004.94 1005.32 1005.54 1005.74 1006.01 1006.37 1006.78 1007.20 1007.66 1008.15
1020.73 1020.21 1019.87 1019.51 1019.05 1018.60 1018.16 1017.67 1017.11 1016.27 1014.96 1014.79 1014.87 1014.87 1014.53 1014.07 1013.79 1013.46 1013.23 1013.11 1012.74 1012.20 1011.51 1010.51 1009.93 1009.02 1008.70 1008.13 1007.48 1007.41 1006.84 1006.77 1006.29 1006.12 1005.96 1005.08 1004.53 1004.10 1004.37 1004.27 1004.37 1004.37 1004.55 1004.87 1005.23 1005.31 1005.57 1005.91 1006.22 1006.66 1007.09 1007.47 1007.91 1008.29
1020.24 1019.81 1019.48 1019.09 1018.66 1018.20 1017.76 1017.39 1017.04 1016.67 1016.40 1016.33 1016.28 1015.70 1014.96 1013.98 1013.17 1012.72 1012.06 1011.90 1011.43 1010.38 1010.08 1009.76 1009.36 1009.17 1008.63 1008.47 1007.74 1007.50 1006.86 1006.74 1006.11 1006.36 1005.94 1004.81 1004.48 1004.68 1004.79 1004.77 1004.81 1004.87 1005.06 1005.31 1005.54 1005.95 1006.37 1006.68 1006.92 1007.04 1007.29 1007.59 1007.96 1008.39
1019.75 1019.37 1019.00 1018.62 1018.20 1017.79 1017.21 1016.91 1016.76 1016.44 1015.97 1015.75 1015.73 1015.09 1014.30 1013.39 1012.60 1011.75 1010.90 1010.33 1010.02 1009.53 1009.37 1009.22 1009.02 1008.81 1008.65 1008.46 1007.86 1007.52 1006.96 1006.44 1006.53 1006.16 1005.37 1005.19 1005.47 1005.69 1005.87 1005.98 1005.86 1006.02 1005.96 1006.14 1006.40 1006.62 1006.74 1007.00 1007.21 1007.38 1007.47 1007.79 1008.08 1008.33
1019.19 1018.88 1018.50 1018.10 1017.77 1017.48 1017.22 1016.83 1016.45 1016.02 1015.95 1015.33 1014.75 1014.15 1013.27 1012.21 1011.33 1010.44 1010.04 1009.76 1009.62 1009.49 1009.18 1009.26 1009.04 1008.80 1008.53 1008.16 1007.76 1007.20 1006.95 1006.84 1006.19 1005.82 1005.42 1005.81 1006.26 1006.41 1006.58 1006.77 1006.73 1006.85 1006.94 1006.92 1007.04 1007.21 1007.36 1007.44 1007.51 1007.67 1007.77 1007.96 1008.08 1008.20
1018.84 1018.53 1018.13 1017.68 1017.56 1017.36 1017.02 1016.57 1016.10 1015.88 1015.56 1014.92 1014.38 1013.24 1012.17 1011.27 1010.71 1010.17 1009.92 1009.74 1009.61 1009.56 1009.56 1009.41 1009.23 1009.11 1008.46 1008.18 1007.76 1007.36 1006.87 1006.40 1006.11 1005.94 1006.26 1006.76 1006.91 1007.04 1007.08 1007.25 1007.36 1007.43 1007.54 1007.53 1007.56 1007.61 1007.73 1007.83 1007.86 1007.86 1007.96 1008.00 1008.10 1008.20
1018.52 1018.19 1017.76 1017.52 1017.29 1017.05 1016.72 1016.19 1015.83 1015.74 1015.21 1014.62 1013.75 1012.75 1011.74 1011.36 1010.53 1010.22 1010.07 1009.89 1009.79 1009.72 1009.69 1009.39 1009.17 1009.00 1008.58 1008.26 1007.73 1007.10 1006.83 1006.34 1006.52 1006.88 1007.20 1007.33 1007.36 1007.43 1007.56 1007.68 1007.72 1007.85 1007.88 1007.93 1008.01 1008.10 1008.12 1008.13 1008.14 1008.10 1008.10 1008.10 1008.13 1008.23
1018.29 1017.96 1017.57 1017.33 1017.06 1016.68 1016.24 1016.22 1015.87 1015.41 1014.63 1013.80 1012.76 1012.30 1012.01 1011.46 1011.03 1010.58 1010.32 1010.15 1010.13 1009.97 1009.58 1009.36 1009.35 1008.81 1008.64 1008.07 1007.41 1006.88 1006.73 1006.81 1007.15 1007.42 1007.48 1007.53 1007.42 1007.46 1007.82 1007.84 1007.94 1008.16 1008.23 1008.29 1008.34 1008.36 1008.37 1008.40 1008.33 1008.19 1008.03 1008.11 1008.13 1008.12
1017.96 1017.54 1017.43 1017.22 1017.02 1016.49 1016.14 1015.86 1015.57 1014.95 1013.94 1013.05 1012.56 1011.96 1011.76 1011.35 1010.92 1010.67 1010.45 1010.39 1010.35 1010.10 1009.84 1009.59 1009.36 1008.89 1007.84 1007.24 1006.80 1006.74 1007.01 1007.37 1007.69 1007.58 1007.64 1007.52 1007.41 1007.82 1007.98 1008.08 1008.21 1008.28 1008.43 1008.52 1008.58 1008.60 1008.58 1008.51 1008.39 1008.31 1008.28 1008.15 1008.13 1008.16
1017.54 1017.36 1017.14 1016.98 1016.96 1016.86 1016.27 1015.78 1015.46 1014.37 1013.20 1012.56 1012.15 1011.99 1011.59 1011.03 1010.67 1010.49 1010.34 1010.20 1010.37 1010.35 1010.03 1009.39 1008.53 1007.62 1007.04 1006.85 1006.61 1006.62 1006.99 1007.17 1007.43 1007.77 1007.66 1007.51 1007.48 1007.68 1007.87 1008.11 1008.34 1008.46 1008.47 1008.49 1008.55 1008.52 1008.51 1008.51 1008.44 1008.32 1008.17 1008.10 1008.14 1008.21
1017.08 1016.86 1016.55 1016.38 1016.61 1016.56 1016.17 1015.58 1015.23 1014.53 1013.28 1012.62 1012.25 1011.88 1011.44 1010.82 1010.30 1010.02 1009.85 1009.82 1009.97 1010.04 1009.55 1008.45 1007.15 1006.54 1006.42 1006.42 1006.53 1006.48 1006.67 1006.97 1007.42 1007.50 1007.56 1007.62 1007.62 1007.74 1007.72 1007.90 1008.05 1008.19 1008.23 1008.36 1008.36 1008.39 1008.21 1008.23 1008.36 1008.16 1007.97 1007.98 1007.97 1008.08
1016.80 1016.56 1016.28 1016.30 1016.41 1016.47 1016.17 1015.55 1014.93 1014.21 1013.50 1012.82 1011.97 1011.74 1010.88 1010.43 1009.96 1009.46 1009.13 1009.13 1009.39 1008.66 1007.71 1006.93 1006.52 1006.30 1006.21 1006.12 1006.27 1006.49 1006.54 1006.79 1007.17 1007.27 1007.46 1007.57 1007.57 1007.63 1007.53 1007.72 1007.78 1007.81 1007.81 1007.77 1007.67 1007.95 1008.04 1007.91 1008.23 1008.04 1007.78 1007.96 1008.07 1007.75
1016.69 1016.44 1016.31 1016.22 1016.20 1016.16 1015.89 1015.46 1015.04 1014.30 1013.84 1012.48 1011.96 1011.31 1010.45 1009.68 1009.07 1008.69 1008.56 1008.54 1007.78 1006.86 1006.56 1006.14 1005.86 1005.74 1005.72 1005.80 1005.85 1005.96 1006.07 1006.37 1006.81 1006.99 1007.27 1007.32 1007.06 1007.15 1007.12 1007.09 1007.23 1007.09 1007.22 1007.18 1007.29 1007.26 1007.43 1007.47 1007.81 1007.92 1008.01 1007.96 1008.01 1007.86
1016.58 1016.45 1016.18 1016.00 1016.02 1015.76 1015.25 1014.89 1014.58 1013.78 1012.99 1011.96 1011.36 1010.62 1009.70 1009.07 1008.44 1008.42 1008.04 1007.25 1006.65 1006.45 1006.25 1005.93 1005.42 1005.18 1005.12 1005.07 1005.31 1005.39 1005.70 1005.94 1006.17 1006.32 1006.51 1006.49 1006.47 1006.57 1006.54 1006.51 1006.57 1006.46 1006.49 1006.65 1006.84 1006.90 1006.99 1007.35 1007.62 1007.65 1007.71 1007.88 1007.65 1007.50
1016.44 1016.31 1015.82 1015.59 1015.52 1015.19 1014.81 1014.33 1013.93 1013.30 1012.50 1011.72 1010.91 1009.91 1009.07 1008.38 1008.00 1007.69 1006.95 1006.36 1006.45 1006.35 1006.28 1005.75 1005.20 1004.82 1004.81 1004.78 1004.66 1004.59 1004.77 1005.12 1005.46 1005.78 1005.95 1006.27 1006.00 1005.81 1005.83 1005.78 1005.81 1005.95 1005.92 1005.78 1006.13 1006.38 1006.57 1006.73 1007.05 1007.17 1007.11 1007.11 1007.28 1007.22
1016.55 1016.05 1015.92 1015.36 1015.00 1014.71 1014.22 1013.60 1012.92 1012.51 1011.79 1011.11 1010.33 1009.30 1008.62 1008.19 1007.68 1007.10 1006.48 1006.54 1006.56 1006.42 1006.33 1005.88 1005.17 1004.87 1004.47 1003.99 1003.99 1003.98 1004.06 1004.27 1004.83 1005.05 1005.25 1005.60 1005.39 1005.25 1005.18 1005.08 1005.01 1005.10 1005.44 1005.54 1005.50 1005.62 1005.82 1006.08 1006.29 1006.45 1006.55 1006.75 1006.86 1006.87
1016.03 1015.45 1015.40 1014.69 1014.23 1014.18 1013.64 1012.83 1012.21 1011.64 1011.12 1010.39 1009.54 1008.77 1008.24 1007.82 1007.37 1006.78 1006.74 1006.45 1006.41 1006.44 1006.50 1006.15 1005.66 1005.21 1004.57 1004.09 1003.77 1003.45 1003.49 1003.82 1004.22 1004.66 1004.35 1004.53 1004.62 1004.53 1004.29 1004.25 1004.10 1003.98 1004.40 1004.65 1004.67 1004.78 1004.99 1005.27 1005.49 1005.74 1005.89 1006.13 1006.59 1006.69
1015.43 1014.74 1014.49 1014.26 1014.03 1013.78 1013.39 1012.54 1012.01 1011.50 1010.59 1009.68 1009.04 1008.52 1007.98 1007.23 1006.57 1006.68 1006.45 1006.35 1006.56 1006.26 1005.99 1005.73 1005.47 1005.00 1004.53 1003.92 1003.59 1003.37 1003.38 1003.50 1003.54 1003.67 1003.59 1003.69 1003.86 1003.93 1003.80 1003.57 1003.45 1003.47 1003.86 1003.96 1004.07 1004.09 1004.15 1004.39 1004.66 1004.92 1005.05 1005.17 1005.29 1005.42
1015.01 1014.57 1014.20 1013.90 1013.66 1013.35 1012.79 1012.00 1011.12 1010.11 1009.40 1009.05 1008.78 1008.23 1007.33 1006.72 1005.94 1005.77 1005.77 1005.81 1005.75 1005.34 1005.35 1005.05 1004.61 1004.05 1003.67 1003.40 1003.31 1003.43 1003.38 1003.47 1003.61 1003.73 1003.84 1003.80 1003.60 1003.41 1003.24 1003.06 1003.02 1003.54 1003.61 1003.54 1003.54 1003.69 1003.94 1004.03 1004.23 1004.23 1004.36 1004.36 1004.39 1004.65
1014.53 1014.13 1013.98 1013.47 1013.24 1012.75 1011.92 1011.01 1009.94 1008.98 1008.60 1008.35 1008.00 1007.61 1006.84 1006.05 1005.61 1005.39 1005.06 1005.14 1004.99 1004.94 1004.79 1004.26 1003.66 1003.35 1002.95 1002.84 1002.83 1002.89 1002.83 1002.89 1002.96 1002.93 1002.73 1002.38 1002.14 1002.25 1002.35 1002.36 1002.42 1002.62 1002.79 1002.95 1003.37 1003.19 1003.35 1003.66 1003.97 1004.00 1003.84 1003.77 1003.80 1003.94
1013.57 1013.47 1013.29 1012.84 1012.29 1011.34 1010.20 1009.55 1008.81 1008.41 1008.18 1007.93 1007.67 1007.12 1006.45 1005.72 1005.27 1004.87 1004.37 1004.04 1004.02 1003.86 1003.31 1003.44 1003.09 1002.89 1002.68 1002.41 1002.04 1002.04 1002.30 1002.32 1002.17 1001.80 1001.47 1001.24 1000.95 1000.89 1001.22 1001.48 1001.70 1001.88 1002.15 1002.34 1002.65 1003.01 1003.79 1003.75 1003.91 1003.89 1003.76 1003.46 1003.35 1003.31
1012.88 1012.88 1012.62 1012.06 1011.14 1009.70 1008.97 1008.59 1008.22 1008.02 1007.71 1007.23 1006.99 1006.69 1005.96 1005.80 1004.57 1003.90 1003.63 1003.38 1003.03 1002.85 1002.77 1002.60 1002.34 1002.08 1002.14 1002.16 1002.04 1001.83 1001.85 1001.77 1001.77 1001.79 1001.75 1001.56 1001.29 1000.94 1000.82 1000.98 1001.12 1001.28 1001.45 1001.70 1002.02 1002.40 1002.66 1002.83 1002.77 1002.76 1002.82 1002.83 1002.74 1003.08
1012.01 1011.83 1011.61 1011.11 1009.86 1008.43 1008.06 1007.59 1007.44 1007.22 1006.64 1006.28 1005.90 1005.92 1005.77 1005.54 1004.78 1003.66 1003.20 1002.97 1002.47 1002.20 1002.27 1002.34 1002.21 1001.91 1001.72 1002.01 1001.89 1001.94 1002.05 1001.76 1001.58 1001.53 1001.56 1001.48 1001.21 1000.82 1000.70 1000.65 1000.80 1000.93 1000.99 1001.23 1001.52 1001.78 1002.12 1002.25 1002.17 1002.25 1002.26 1002.33 1002.37 1002.44
1010.78 1010.61 1010.37 1010.08 1009.27 1008.03 1007.14 1007.08 1006.67 1006.38 1006.10 1005.59 1005.28 1005.27 1005.11 1004.88 1004.24 1003.56 1003.26 1003.12 1002.99 1002.59 1002.21 1001.96 1001.90 1001.85 1001.85 1001.73 1001.55 1001.71 1002.07 1001.62 1001.73 1001.81 1001.66 1001.60 1001.63 1001.51 1001.01 1000.38 1000.45 1000.58 1000.74 1000.93 1001.11 1001.35 1001.65 1001.84 1001.93 1002.06 1002.11 1002.10 1002.08 1002.09
Wind_Speed
15 15 15 16 16 16 16 16 17 18 19 18 17 17 15 13 11 5 4 3 3 3 8 8 5 6 3 2 3 4 4 3 0 3 4 4 4 4 3 2 4 7 5 5 3 6 13 3 8 10 3 11 13 10
15 15 15 15 16 16 16 16 16 18 19 19 17 16 15 13 10 3 2 0 1 4 7 3 8 13 14 10 2 1 4 3 1 1 1 2 3 3 3 5 2 5 5 2 6 1 4 5 7 4 6 10 8 8
15 15 16 16 16 16 17 18 18 19 19 19 18 17 16 13 9 3 3 2 2 4 7 4 5 4 12 20 12 4 2 2 1 3 1 1 3 3 5 5 4 4 4 3 5 5 1 2 3 3 5 6 5 4
15 15 16 16 17 17 17 18 19 20 19 19 19 18 16 15 9 5 3 2 2 3 4 4 3 4 2 7 18 19 2 2 3 1 1 1 3 2 1 2 4 1 8 7 2 3 2 5 6 8 5 4 3 3
14 15 16 17 17 18 18 18 20 20 20 21 21 20 18 15 11 6 5 5 6 4 4 7 12 2 5 7 10 16 14 4 2 2 2 2 1 3 1 2 4 6 6 6 6 12 8 12 11 8 7 4 2 4
14 15 16 16 17 18 19 18 20 22 22 22 22 20 18 13 7 1 2 4 7 5 3 5 4 4 2 4 7 11 9 5 3 2 2 2 1 3 4 3 5 7 6 6 2 8 5 9 10 8 6 5 4 4
14 15 16 16 17 18 20 19 20 20 23 23 23 21 17 11 5 3 3 2 9 4 3 5 5 1 3 3 3 4 7 3 3 2 4 3 3 4 3 12 7 5 8 8 4 10 5 9 7 9 5 5 6 5
14 14 16 18 18 18 20 19 21 22 23 23 21 17 6 8 2 3 1 9 7 2 2 3 4 4 4 0 2 1 4 3 4 2 1 3 3 3 6 6 11 4 4 5 12 5 5 8 4 7 5 5 4 2
14 14 15 16 17 17 19 20 22 23 24 23 15 5 2 2 1 3 7 12 2 3 3 2 3 2 4 2 0 2 2 4 2 4 3 4 4 6 8 8 8 10 10 11 10 2 8 8 7 6 5 5 4 2
15 14 15 17 17 17 18 19 21 23 25 15 1 2 2 2 8 4 4 3 3 3 3 4 1 3 3 2 2 2 1 1 3 2 3 5 5 10 9 7 5 7 9 13 10 6 5 5 6 7 8 6 5 2
15 14 16 17 17 17 17 17 18 21 8 5 5 3 5 8 3 3 3 3 3 3 4 4 4 3 2 3 2 1 0 1 3 3 3 3 4 4 4 6 5 9 8 9 1 2 5 2 6 7 7 6 5 3
14 15 16 17 17 17 16 15 15 6 3 5 5 5 3 3 1 3 3 2 4 3 4 3 2 4 1 2 3 1 2 1 3 1 3 3 3 3 3 2 5 8 10 7 4 3 1 3 4 4 5 5 4 2
14 15 15 16 16 16 16 10 10 12 10 1 2 3 2 1 1 4 4 3 2 2 3 3 2 1 2 3 2 2 4 2 1 3 3 2 4 3 4 5 8 7 7 5 4 4 3 2 0 4 5 4 4 3
13 14 14 14 15 10 12 13 14 8 3 2 2 4 4 4 4 3 2 2 1 2 1 1 1 1 2 2 1 3 1 2 3 3 2 3 5 5 5 5 5 5 4 4 4 4 4 3 3 1 3 3 3 4
13 15 14 7 8 11 13 15 15 2 2 3 2 4 5 3 3 1 2 1 0 1 1 1 2 2 1 2 1 2 3 3 3 2 3 5 3 5 5 4 3 4 2 3 3 4 4 4 4 4 2 2 3 3
12 14 1 6 10 12 15 11 2 1 2 3 4 4 3 3 2 1 1 2 4 1 1 2 1 1 1 2 2 5 3 3 1 2 1 2 3 4 4 4 4 3 3 3 3 4 4 4 4 4 3 2 3 3
9 4 4 8 12 15 12 2 1 3 4 4 3 3 4 4 4 3 1 2 2 1 1 2 2 3 2 2 3 3 2 2 3 1 3 3 2 5 3 3 3 3 3 3 3 3 4 4 4 4 4 2 2 2
4 4 7 8 9 7 1 2 2 3 5 4 4 1 2 3 3 3 2 1 2 1 1 2 1 3 4 4 3 2 1 1 1 1 3 3 4 4 2 4 3 3 3 2 0 1 3 4 4 3 3 2 0 1
7 8 11 11 5 3 2 2 3 4 5 2 2 3 3 4 5 6 6 5 3 2 3 3 6 5 6 3 3 3 3 3 2 1 2 4 2 6 3 3 3 4 4 2 1 1 2 3 3 3 1 2 3 4
12 13 10 6 4 2 3 3 2 4 3 2 3 3 3 5 4 4 5 4 4 4 6 6 7 5 3 3 4 3 3 3 2 2 2 4 3 4 6 6 5 5 3 2 1 1 1 2 1 2 3 5 7 7
4 2 3 2 1 2 2 2 3 3 4 4 4 3 5 3 4 4 4 5 4 4 6 8 8 8 7 4 3 3 3 5 4 4 3 2 1 4 5 5 5 4 3 2 1 3 3 3 2 1 3 3 2 4
2 4 1 2 2 2 3 3 4 4 4 4 4 3 4 4 3 3 2 4 4 6 7 9 9 10 9 8 7 8 6 6 5 3 3 4 3 2 4 5 6 5 4 4 3 4 5 4 4 3 1 2 2 2
3 2 2 3 3 2 3 2 3 3 4 3 3 3 3 3 3 3 3 4 3 2 2 4 9 11 12 13 9 8 7 7 5 4 2 4 3 4 5 5 5 5 5 5 5 5 5 3 5 4 4 4 4 3
1 2 2 2 3 3 2 3 3 3 3 3 3 4 3 3 1 3 4 2 1 2 1 5 5 5 5 7 9 10 8 6 5 3 3 4 5 5 5 4 4 6 6 4 6 6 6 6 5 6 5 5 5 4
2 2 2 4 2 3 3 3 3 3 3 2 4 4 3 2 3 3 2 3 2 4 6 5 6 2 4 4 5 7 9 8 5 3 6 7 5 3 3 4 5 5 5 7 8 8 7 7 7 7 7 6 6 6
3 4 5 3 3 3 3 3 3 2 3 3 4 3 2 2 3 3 1 1 2 1 5 5 5 5 4 2 4 4 5 7 8 7 7 6 6 6 5 4 4 5 8 8 7 10 10 9 9 10 9 10 9 8
3 3 4 3 2 1 3 4 4 4 4 3 2 2 3 4 3 2 3 1 2 4 6 4 4 5 6 6 3 3 2 4 7 5 1 1 3 6 7 7 8 5 4 8 8 9 11 11 11 11 10 8 9 10
4 2 3 1 1 2 4 4 4 4 4 3 2 3 3 3 3 1 3 3 4 6 5 6 7 7 6 6 4 3 3 3 4 3 2 6 7 6 9 8 8 6 5 5 6 7 7 8 10 11 11 11 10 8
4 3 3 7 4 3 5 6 5 4 2 2 3 4 4 4 3 5 8 8 7 5 9 9 8 5 6 2 5 5 5 6 8 10 12 9 8 8 9 8 7 6 6 6 10 10 9 8 8 9 10 8 7 5
4 5 3 3 4 6 6 6 5 5 3 4 4 7 10 11 11 10 11 10 9 9 10 7 6 5 4 4 3 4 5 7 7 7 7 8 9 8 7 7 6 6 5 6 5 4 3 6 4 6 7 7 6 7
1 3 3 4 5 5 8 8 7 6 7 8 9 11 12 7 7 4 5 6 7 6 6 6 6 5 3 2 3 2 2 2 5 8 8 7 6 5 5 5 4 4 4 5 5 5 5 6 6 7 6 7 6 5
4 7 4 4 5 5 7 3 2 3 3 2 1 2 1 3 4 3 1 6 6 2 2 3 4 4 3 3 3 3 1 2 2 3 5 5 5 6 6 5 4 4 5 5 5 4 5 5 5 6 6 7 7 8
4 5 5 3 4 4 3 3 3 3 3 2 2 2 2 2 3 2 1 5 6 6 7 5 4 3 4 5 4 2 2 2 3 3 5 7 8 8 7 5 5 6 7 6 5 5 6 7 7 8 10 10 10 9
Wind_Direction
327 328 329 330 332 334 335 335 338 336 335 336 337 337 340 344 347 350 298 223 289 270 272 217 233 235 237 249 283 13 245 164 253 166 199 165 208 176 191 183 200 229 219 229 212 244 252 148 132 208 65 131 137 142
325 323 322 323 325 325 326 328 331 334 331 330 331 330 331 335 337 11 282 311 328 246 276 287 255 254 242 242 311 332 338 281 1 71 210 139 171 177 184 228 134 207 240 225 229 287 350 295 295 124 142 134 146 163
324 322 320 320 319 319 321 324 328 331 331 328 327 328 328 326 325 307 274 273 243 273 275 273 234 240 225 234 229 241 226 301 160 347 88 51 235 169 189 217 173 194 170 203 196 178 17 89 108 122 135 128 167 212
321 321 319 319 318 317 319 320 324 325 326 325 323 323 321 320 305 279 235 162 257 293 287 284 347 282 258 197 205 215 1 121 62 291 274 257 262 208 247 3 251 106 165 164 217 233 195 228 212 185 181 162 132 88
316 318 319 319 319 319 320 320 323 323 322 322 319 317 317 314 298 269 237 216 230 287 304 296 310 277 272 190 192 199 213 259 340 303 245 246 151 209 162 257 235 191 168 195 218 187 196 187 184 185 188 181 160 136
314 316 318 319 319 320 324 323 323 321 320 319 317 312 309 301 292 268 245 185 201 201 275 302 343 272 335 161 172 183 190 196 229 234 234 232 227 256 238 242 261 214 222 236 298 190 190 162 169 181 190 168 131 139
310 314 318 319 323 325 327 322 317 318 321 316 315 313 306 278 178 221 347 46 171 190 257 291 305 288 310 128 139 139 173 176 216 203 221 237 192 215 262 254 275 246 236 230 221 150 135 177 186 184 177 135 125 103
306 310 315 322 325 323 325 319 316 315 316 314 313 318 335 119 92 241 44 168 170 244 246 289 283 290 8 199 159 162 147 184 189 255 177 219 147 224 248 243 246 236 205 204 184 216 233 167 155 169 156 149 148 117
303 306 310 313 316 318 319 318 319 320 318 316 324 132 170 205 156 76 15 155 200 296 292 252 283 342 354 52 142 141 229 190 101 233 216 183 178 219 224 232 233 210 197 184 173 156 154 170 183 179 188 185 205 207
302 306 310 312 314 316 318 320 324 323 318 319 169 256 177 81 319 149 200 175 190 199 226 255 247 267 316 343 104 212 176 205 217 161 144 222 243 257 261 257 283 220 199 162 156 143 156 200 203 206 212 226 232 210
304 308 309 310 312 314 316 320 327 328 331 3 358 331 324 315 201 194 211 226 151 231 197 237 228 282 138 285 339 4 61 184 246 129 244 212 246 244 327 280 256 206 177 172 37 196 201 232 224 218 221 224 215 201
307 311 310 310 312 311 311 314 321 332 325 301 293 296 281 278 195 238 222 174 219 245 180 211 218 215 263 273 271 131 278 201 246 88 240 242 248 322 292 125 122 142 145 131 95 100 20 283 265 243 238 225 197 159
308 308 308 310 315 318 324 323 313 297 299 241 202 241 226 207 185 221 208 202 235 197 194 200 188 240 197 229 249 266 235 234 263 221 240 292 351 29 69 83 85 78 89 86 77 61 42 359 185 227 228 181 160 198
305 305 305 311 316 334 344 332 327 329 278 266 272 292 222 203 234 213 264 290 21 309 352 30 146 354 19 237 267 249 111 250 241 242 245 20 352 119 89 64 75 68 47 67 53 25 359 341 320 249 228 186 201 237
309 305 306 328 358 343 330 325 318 286 272 269 252 243 234 277 275 294 320 217 49 125 161 163 85 308 50 280 335 310 239 242 236 308 1 348 126 128 112 95 87 96 86 61 24 2 344 334 315 295 258 246 234 245
315 305 242 342 332 327 323 314 298 255 248 249 233 260 234 273 250 16 360 24 4 351 311 246 100 31 273 297 236 216 250 239 50 354 347 165 137 83 75 84 101 112 68 50 28 1 344 344 329 319 301 263 225 244
305 251 298 328 326 314 303 263 267 240 253 240 246 251 269 277 267 287 295 337 342 271 270 68 320 240 125 229 239 215 253 1 351 241 191 200 115 70 26 98 104 101 106 83 49 29 5 341 322 302 277 202 239 273
242 276 297 314 329 310 275 249 260 251 248 247 254 282 226 255 275 266 269 254 329 295 240 240 133 239 234 199 210 185 158 9 246 234 238 231 111 41 151 197 159 128 146 139 64 350 353 0 356 353 315 286 222 148
277 285 287 292 295 300 286 259 250 268 251 265 256 256 260 268 261 262 261 255 248 284 293 236 240 212 221 220 224 178 175 187 147 192 256 225 175 260 206 193 183 192 182 187 240 5 358 353 339 313 248 157 140 137
282 286 288 285 212 238 263 251 212 262 280 336 269 250 256 265 279 251 244 218 188 188 205 228 229 223 209 212 211 202 164 146 158 48 224 229 234 224 200 195 203 183 171 185 173 336 55 96 51 46 97 120 140 141
305 281 334 138 166 239 287 303 262 261 298 282 291 280 267 243 245 238 240 182 191 218 229 232 241 239 240 251 199 193 205 174 194 184 162 221 236 209 207 204 188 174 194 207 138 130 204 137 127 81 93 87 115 141
268 311 270 198 238 210 253 228 262 301 270 271 286 232 266 262 250 216 149 196 224 227 227 239 237 231 236 232 227 206 204 200 206 185 207 189 213 188 215 208 189 189 199 197 194 173 174 176 158 160 202 266 218 210
288 233 240 189 233 217 260 160 254 240 268 276 280 259 241 251 225 153 236 219 255 256 257 259 260 243 235 238 242 230 205 197 201 218 205 284 268 243 225 219 214 212 192 195 199 202 199 178 186 214 181 208 245 242
171 256 250 237 202 258 266 236 225 252 262 257 255 269 260 265 298 244 253 173 49 288 341 322 297 245 225 231 232 234 221 210 217 223 183 244 254 239 212 215 215 221 234 203 187 199 203 207 203 215 226 222 216 233
255 226 199 250 231 237 246 245 223 235 265 257 252 256 255 242 257 243 253 34 7 14 353 349 346 342 263 252 243 234 213 195 186 216 248 209 232 246 253 228 238 230 199 206 202 201 195 196 197 205 211 219 227 232
244 199 188 240 203 221 234 265 242 266 259 257 254 270 295 261 254 275 22 259 294 322 352 331 325 326 328 328 273 234 202 196 189 221 241 196 210 229 244 243 261 254 201 215 205 198 197 193 197 206 215 220 226 241
254 238 206 225 263 302 297 266 268 262 259 254 264 261 256 239 242 220 259 82 335 294 274 281 279 268 274 290 276 259 209 192 201 225 314 267 235 234 235 233 234 248 190 201 204 203 197 194 197 205 219 220 222 219
255 282 244 224 254 261 295 268 249 244 231 227 265 252 282 224 266 107 202 210 258 299 307 288 294 282 267 268 256 241 205 190 199 210 259 255 247 241 234 237 243 185 254 237 203 194 212 213 206 208 214 225 232 224
231 225 245 259 245 245 237 229 238 241 241 224 256 271 262 258 307 293 296 300 303 290 291 297 303 294 301 246 224 223 209 188 191 205 220 222 202 214 214 224 233 229 227 236 215 230 220 224 229 229 230 223 231 229
238 190 222 246 231 229 226 218 238 245 239 258 274 278 277 276 280 277 278 283 280 259 266 270 283 298 295 285 243 215 196 212 216 225 200 202 203 201 190 204 210 219 214 221 219 186 164 207 199 222 229 233 234 238
221 185 237 235 254 247 240 248 257 269 262 258 255 259 274 297 310 291 262 266 283 267 261 272 288 289 262 256 253 226 287 193 227 240 254 273 275 240 209 203 212 204 203 206 189 199 216 214 219 225 226 229 239 255
195 211 212 237 265 266 286 224 223 245 259 252 257 185 196 221 263 276 296 335 344 350 256 240 273 307 319 276 249 213 228 314 273 280 283 278 281 268 250 221 206 198 185 180 178 183 203 228 232 232 232 236 252 266
230 221 219 245 262 272 230 233 239 259 232 266 255 204 224 252 293 335 354 12 349 344 341 326 308 296 289 283 268 195 209 293 328 316 329 326 301 285 287 244 215 209 194 188 183 179 204 226 242 252 256 255 255 257